Location: *
(46.3500°N, 10.9000°E)
Time: 02:57:27
(UTC+00:00)

Cosmos 676 Rocket - Pass Details

Date: 09 April 2020
Orbit: 755 x 784 km, 74.0° (Epoch: 06 June)

Event Time Altitude Azimuth Distance (km) Brightness Sun altitude
Rises 19:05:59 0° 187° (S) 3,242 7.1 -12.2°
Reaches altitude 10° 19:08:24 10° 183° (S) 2,315 6.3 -12.5°
Maximum altitude 19:13:32 57° 106° (ESE) 910 4.0 -13.3°
Drops below altitude 10° 19:18:39 10° 29° (NNE) 2,313 6.5 -14.1°
Sets 19:21:04 0° 26° (NNE) 3,239 7.3 -14.5°
